Location: Unspecified
(41.5000°N, 0.0000°E)
Time: 10:49:08
(UTC+00:00)

Vanguard 3 - Pass Details

Date: 25 June 2019
Orbit: 507 x 3264 km, 33.4° (Epoch: 20 July)

Event Time Altitude Azimuth Distance (km) Brightness Sun altitude
Rises 08:11:26 0° 210° (SSW) 7,195 11.8 39.0°
Reaches altitude 10° 08:17:35 10° 201° (SSW) 6,024 11.5 40.2°
Maximum altitude 08:31:22 28° 152° (SSE) 3,950 11.4 42.7°
Drops below altitude 10° 08:41:20 10° 100° (E) 4,330 11.9 44.6°
Sets 08:44:48 0° 89° (E) 4,943 11.9 45.2°
